This is the latest recevied weather packets stored in our database for station/object KQ7A. If no packets are shown the sender has not sent any weather packets the latest 10 day(s).
| Time | Temp. | Humidity | Pressure | Rain* | Wind** | Luminosity | Snow |
|---|---|---|---|---|---|---|---|
| 1777662638 | 19.44° C | 22% | 1020.1 hPa | 0 mm | - | 808 W/m² | - |
| 1777662333 | 19.44° C | 27% | 1020 hPa | 0 mm | - | 830 W/m² | - |
| 1777662029 | 19.44° C | 29% | 1020.3 hPa | 0 mm | - | 815 W/m² | - |
| 1777661726 | 18.89° C | 29% | 1020.4 hPa | 0 mm | - | 857 W/m² | - |
| 1777661422 | 18.89° C | 27% | 1020.4 hPa | 0 mm | - | 868 W/m² | - |
| 1777661118 | 18.89° C | 26% | 1020.5 hPa | 0 mm | - | 867 W/m² | - |
| 1777660818 | 18.33° C | 32% | 1020.6 hPa | 0 mm | - | 868 W/m² | - |
| 1777660515 | 18.33° C | 28% | 1020.4 hPa | 0 mm | - | 869 W/m² | - |
| 1777660211 | 18.89° C | 31% | 1020.5 hPa | 0 mm | - | 901 W/m² | - |
| 1777659909 | 18.89° C | 33% | 1020.5 hPa | 0 mm | - | 907 W/m² | - |
| 1777659605 | 17.78° C | 31% | 1020.8 hPa | 0 mm | - | 912 W/m² | - |
| 1777659302 | 17.78° C | 31% | 1020.7 hPa | 0 mm | - | 918 W/m² | - |
| 1777658999 | 17.78° C | 30% | 1020.7 hPa | 0 mm | - | 942 W/m² | - |
| 1777658697 | 17.78° C | 36% | 1020.7 hPa | 0 mm | - | 947 W/m² | - |
| 1777658392 | 17.78° C | 30% | 1020.9 hPa | 0 mm | - | 937 W/m² | - |
| 1777658090 | 17.22° C | 34% | 1020.9 hPa | 0 mm | - | 926 W/m² | - |
| 1777657786 | 16.67° C | 29% | 1020.9 hPa | 0 mm | - | 917 W/m² | - |
| 1777657484 | 16.67° C | 30% | 1020.7 hPa | 0 mm | - | 914 W/m² | - |
| 1777657181 | 16.67° C | 39% | 1020.9 hPa | 0 mm | - | 910 W/m² | - |
| 1777656879 | 16.67° C | 35% | 1021.2 hPa | 0 mm | - | 880 W/m² | - |
| 1777656574 | 16.11° C | 35% | 1021.1 hPa | 0 mm | - | 858 W/m² | - |
| 1777656270 | 16.11° C | 36% | 1020.8 hPa | 0 mm | - | 853 W/m² | - |
| 1777655966 | 16.11° C | 31% | 1021.1 hPa | 0 mm | - | 841 W/m² | - |
| 1777655662 | 16.11° C | 29% | 1021.3 hPa | 0 mm | - | 825 W/m² | - |
| 1777655359 | 15.56° C | 36% | 1021.2 hPa | 0 mm | - | 811 W/m² | - |
* Rain latest hour (hover to see other rain measurements)
** Current wind speed in m/s (hover to see current wind gust speed)